QPF
0.06 0.05 0.05 0.07 0.07 0.05 0.05 0.08 0.06 0.06 0.05 0.06 0.06 0.05 0.07 0.09 0.08 0.06 0.06 0.04 0.02 0.02 0.02 0.02 0.02 0.02 0.03 0.03 0.02 0.02 0.02 0.02 0.02 0.02 0.01 0.01 0.01 0.01 0.01 0.01 0.01 0.01 0.01
0.07 0.06 0.06 0.07 0.06 0.05 0.06 0.06 0.06 0.07 0.09 0.08 0.08 0.07 0.07 0.07 0.07 0.05 0.05 0.05 0.03 0.02 0.02 0.03 0.02 0.03 0.04 0.03 0.02 0.01 0.02 0.02 0.02 0.02 0.01 0.01 0.01 0.01 0.01 0.01 0.01 0.01 0.01
0.06 0.07 0.07 0.06 0.05 0.03 0.05 0.07 0.06 0.06 0.08 0.08 0.07 0.07 0.07 0.06 0.06 0.07 0.06 0.07 0.05 0.03 0.02 0.01 0.02 0.04 0.03 0.03 0.02 0.02 0.03 0.03 0.02 0.02 0.01 0.01 0.01 0.01 0.01 0.01 0.01 0.01 0.01
0.05 0.07 0.06 0.04 0.05 0.03 0.04 0.06 0.06 0.06 0.07 0.07 0.06 0.05 0.05 0.05 0.05 0.05 0.06 0.07 0.05 0.03 0.02 0.01 0.02 0.04 0.04 0.04 0.04 0.03 0.04 0.03 0.02 0.02 0.02 0.02 0.02 0.01 0.02 0.01 0.01 0.01 0.01
0.05 0.08 0.07 0.06 0.05 0.03 0.04 0.04 0.06 0.06 0.07 0.05 0.04 0.04 0.04 0.04 0.04 0.05 0.06 0.05 0.05 0.04 0.04 0.02 0.02 0.03 0.05 0.06 0.07 0.06 0.05 0.05 0.04 0.03 0.03 0.04 0.04 0.04 0.04 0.04 0.03 0.02 0.02
0.05 0.08 0.07 0.05 0.04 0.06 0.06 0.07 0.07 0.07 0.06 0.04 0.02 0.04 0.05 0.05 0.07 0.08 0.07 0.07 0.07 0.05 0.07 0.08 0.08 0.06 0.04 0.05 0.07 0.07 0.06 0.06 0.05 0.04 0.05 0.05 0.06 0.08 0.09 0.10 0.09 0.07 0.05
0.06 0.10 0.08 0.09 0.06 0.09 0.09 0.06 0.07 0.07 0.06 0.05 0.06 0.07 0.07 0.07 0.10 0.12 0.11 0.11 0.13 0.12 0.11 0.12 0.12 0.12 0.10 0.07 0.07 0.08 0.08 0.07 0.06 0.05 0.06 0.06 0.05 0.06 0.06 0.07 0.07 0.07 0.07
0.08 0.07 0.08 0.07 0.07 0.11 0.11 0.10 0.10 0.11 0.10 0.09 0.11 0.12 0.13 0.13 0.11 0.09 0.11 0.12 0.14 0.15 0.12 0.10 0.11 0.13 0.13 0.11 0.08 0.06 0.05 0.06 0.07 0.07 0.07 0.05 0.04 0.04 0.04 0.05 0.04 0.04 0.05
0.05 0.08 0.08 0.05 0.08 0.07 0.11 0.12 0.12 0.13 0.14 0.14 0.11 0.12 0.15 0.20 0.18 0.11 0.09 0.11 0.14 0.14 0.12 0.10 0.08 0.09 0.09 0.10 0.09 0.08 0.06 0.06 0.07 0.10 0.11 0.11 0.08 0.06 0.05 0.05 0.05 0.05 0.06
0.07 0.08 0.08 0.09 0.10 0.07 0.09 0.06 0.09 0.13 0.14 0.14 0.16 0.13 0.12 0.18 0.22 0.21 0.16 0.11 0.09 0.09 0.09 0.08 0.09 0.09 0.08 0.09 0.10 0.09 0.08 0.05 0.05 0.09 0.11 0.11 0.10 0.08 0.07 0.07 0.08 0.08 0.08
0.07 0.06 0.09 0.12 0.12 0.11 0.12 0.10 0.12 0.11 0.11 0.13 0.15 0.14 0.14 0.17 0.19 0.22 0.23 0.17 0.12 0.08 0.07 0.09 0.09 0.08 0.07 0.07 0.08 0.08 0.09 0.06 0.05 0.05 0.05 0.04 0.05 0.06 0.07 0.07 0.08 0.08 0.08
0.08 0.08 0.11 0.13 0.11 0.12 0.14 0.13 0.12 0.11 0.14 0.13 0.13 0.13 0.15 0.15 0.17 0.20 0.21 0.20 0.18 0.13 0.11 0.12 0.10 0.09 0.07 0.05 0.06 0.08 0.07 0.05 0.05 0.05 0.04 0.03 0.03 0.04 0.06 0.09 0.10 0.09 0.08
0.09 0.09 0.11 0.13 0.13 0.14 0.12 0.13 0.12 0.15 0.15 0.13 0.14 0.14 0.12 0.12 0.13 0.17 0.19 0.17 0.17 0.15 0.14 0.13 0.13 0.11 0.09 0.11 0.12 0.11 0.08 0.07 0.04 0.03 0.03 0.03 0.04 0.05 0.06 0.08 0.11 0.12 0.12
0.07 0.08 0.09 0.11 0.11 0.12 0.11 0.15 0.13 0.11 0.12 0.11 0.12 0.16 0.14 0.13 0.14 0.16 0.17 0.18 0.16 0.14 0.13 0.13 0.12 0.12 0.11 0.12 0.15 0.13 0.11 0.11 0.07 0.05 0.04 0.03 0.03 0.04 0.05 0.05 0.07 0.07 0.09
0.06 0.05 0.06 0.10 0.13 0.13 0.13 0.14 0.13 0.12 0.14 0.14 0.16 0.17 0.17 0.18 0.16 0.14 0.16 0.18 0.19 0.18 0.15 0.14 0.12 0.08 0.09 0.09 0.10 0.09 0.11 0.10 0.06 0.05 0.04 0.04 0.04 0.05 0.05 0.06 0.06 0.04 0.05
0.05 0.06 0.07 0.09 0.10 0.10 0.11 0.10 0.09 0.09 0.10 0.11 0.14 0.17 0.16 0.15 0.15 0.13 0.15 0.19 0.21 0.20 0.16 0.13 0.13 0.08 0.08 0.08 0.08 0.07 0.08 0.07 0.05 0.04 0.03 0.03 0.05 0.06 0.06 0.05 0.05 0.05 0.05
0.03 0.03 0.05 0.06 0.07 0.07 0.08 0.08 0.07 0.07 0.08 0.08 0.10 0.13 0.13 0.13 0.12 0.12 0.14 0.16 0.19 0.19 0.19 0.18 0.14 0.12 0.12 0.10 0.07 0.06 0.04 0.05 0.06 0.06 0.06 0.07 0.07 0.07 0.06 0.06 0.06 0.05 0.05
0.04 0.04 0.04 0.05 0.06 0.07 0.07 0.06 0.07 0.07 0.07 0.08 0.09 0.11 0.11 0.12 0.14 0.13 0.13 0.15 0.18 0.19 0.16 0.13 0.13 0.11 0.11 0.10 0.09 0.07 0.05 0.05 0.06 0.07 0.06 0.06 0.05 0.06 0.06 0.06 0.05 0.04 0.04
0.05 0.05 0.05 0.05 0.05 0.06 0.06 0.07 0.07 0.07 0.07 0.08 0.09 0.09 0.08 0.10 0.12 0.12 0.12 0.12 0.14 0.14 0.13 0.11 0.10 0.09 0.08 0.07 0.07 0.07 0.06 0.08 0.06 0.06 0.05 0.05 0.04 0.04 0.04 0.03 0.03 0.03 0.03
0.05 0.05 0.04 0.04 0.04 0.05 0.06 0.06 0.06 0.06 0.07 0.08 0.09 0.08 0.07 0.07 0.07 0.08 0.09 0.10 0.10 0.13 0.12 0.10 0.09 0.09 0.08 0.08 0.10 0.10 0.10 0.09 0.08 0.07 0.05 0.04 0.04 0.04 0.03 0.03 0.02 0.02 0.01
0.04 0.04 0.04 0.04 0.04 0.03 0.03 0.05 0.05 0.06 0.06 0.07 0.08 0.07 0.05 0.05 0.05 0.06 0.05 0.06 0.08 0.10 0.09 0.10 0.10 0.10 0.13 0.15 0.18 0.17 0.14 0.11 0.10 0.08 0.06 0.06 0.05 0.04 0.04 0.03 0.02 0.02 0.02
0.04 0.04 0.04 0.04 0.04 0.03 0.04 0.05 0.05 0.04 0.05 0.07 0.07 0.07 0.05 0.05 0.04 0.04 0.04 0.04 0.05 0.07 0.10 0.13 0.15 0.18 0.22 0.23 0.21 0.16 0.13 0.12 0.10 0.09 0.08 0.06 0.05 0.04 0.04 0.04 0.05 0.04 0.03
0.04 0.04 0.04 0.04 0.05 0.05 0.06 0.05 0.05 0.05 0.08 0.09 0.08 0.08 0.05 0.04 0.04 0.04 0.04 0.04 0.03 0.03 0.04 0.06 0.09 0.12 0.15 0.17 0.15 0.13 0.12 0.10 0.09 0.07 0.07 0.05 0.05 0.06 0.05 0.06 0.06 0.05 0.03
0.03 0.04 0.04 0.04 0.04 0.04 0.04 0.04 0.04 0.05 0.07 0.07 0.06 0.05 0.05 0.04 0.04 0.05 0.05 0.05 0.05 0.05 0.04 0.03 0.04 0.06 0.08 0.08 0.08 0.08 0.08 0.08 0.08 0.07 0.06 0.06 0.06 0.07 0.06 0.06 0.05 0.05 0.04
0.04 0.04 0.04 0.05 0.04 0.04 0.04 0.03 0.02 0.03 0.04 0.04 0.03 0.03 0.04 0.04 0.05 0.03 0.04 0.06 0.06 0.06 0.04 0.03 0.03 0.03 0.03 0.05 0.06 0.08 0.10 0.11 0.11 0.11 0.11 0.10 0.09 0.08 0.07 0.06 0.04 0.03 0.02
0.04 0.05 0.06 0.06 0.05 0.04 0.04 0.03 0.02 0.03 0.05 0.04 0.04 0.04 0.05 0.03 0.03 0.02 0.03 0.04 0.04 0.05 0.05 0.05 0.05 0.05 0.05 0.06 0.08 0.10 0.11 0.11 0.09 0.08 0.07 0.08 0.07 0.07 0.06 0.04 0.03 0.02 0.01
MSLP
1013.20 1013.44 1013.65 1013.82 1013.99 1014.16 1014.35 1014.54 1014.72 1014.84 1014.90 1014.87 1014.76 1014.61 1014.45 1014.36 1014.37 1014.52 1014.81 1015.21 1015.68 1016.15 1016.58 1016.93 1017.18 1017.35 1017.45 1017.52 1017.60 1017.69 1017.82 1017.98 1018.15 1018.31 1018.46 1018.58 1018.69 1018.80 1018.90 1019.02 1019.14 1019.28 1019.41
1013.24 1013.48 1013.68 1013.85 1014.00 1014.15 1014.31 1014.46 1014.59 1014.69 1014.72 1014.68 1014.57 1014.42 1014.27 1014.15 1014.11 1014.19 1014.39 1014.70 1015.09 1015.52 1015.93 1016.30 1016.60 1016.83 1017.00 1017.12 1017.22 1017.32 1017.43 1017.55 1017.69 1017.82 1017.97 1018.11 1018.25 1018.40 1018.56 1018.71 1018.87 1019.01 1019.14
1013.27 1013.50 1013.70 1013.87 1014.02 1014.15 1014.28 1014.40 1014.50 1014.57 1014.59 1014.56 1014.46 1014.31 1014.15 1013.99 1013.90 1013.88 1013.97 1014.16 1014.44 1014.78 1015.14 1015.51 1015.84 1016.12 1016.35 1016.53 1016.67 1016.78 1016.88 1016.98 1017.08 1017.19 1017.33 1017.48 1017.65 1017.85 1018.05 1018.25 1018.44 1018.61 1018.75
1013.30 1013.53 1013.73 1013.90 1014.04 1014.17 1014.27 1014.37 1014.45 1014.51 1014.53 1014.50 1014.42 1014.29 1014.12 1013.94 1013.77 1013.65 1013.61 1013.65 1013.79 1014.01 1014.30 1014.62 1014.96 1015.28 1015.56 1015.79 1015.97 1016.10 1016.20 1016.28 1016.35 1016.45 1016.57 1016.73 1016.92 1017.14 1017.38 1017.63 1017.85 1018.05 1018.23
1013.34 1013.56 1013.75 1013.93 1014.07 1014.19 1014.29 1014.37 1014.44 1014.50 1014.53 1014.52 1014.47 1014.36 1014.20 1013.99 1013.76 1013.54 1013.36 1013.24 1013.22 1013.30 1013.48 1013.73 1014.05 1014.37 1014.69 1014.97 1015.19 1015.35 1015.46 1015.53 1015.58 1015.65 1015.76 1015.91 1016.11 1016.35 1016.62 1016.89 1017.15 1017.38 1017.58
1013.39 1013.58 1013.77 1013.95 1014.09 1014.21 1014.31 1014.39 1014.46 1014.52 1014.57 1014.60 1014.58 1014.50 1014.36 1014.14 1013.87 1013.55 1013.25 1012.98 1012.80 1012.73 1012.77 1012.94 1013.20 1013.51 1013.85 1014.16 1014.41 1014.60 1014.73 1014.80 1014.85 1014.90 1014.98 1015.12 1015.31 1015.55 1015.82 1016.11 1016.38 1016.62 1016.84
1013.42 1013.59 1013.77 1013.94 1014.09 1014.22 1014.31 1014.39 1014.47 1014.54 1014.62 1014.68 1014.71 1014.68 1014.57 1014.37 1014.07 1013.69 1013.29 1012.89 1012.56 1012.34 1012.25 1012.30 1012.49 1012.78 1013.11 1013.44 1013.73 1013.95 1014.10 1014.19 1014.23 1014.27 1014.33 1014.44 1014.61 1014.82 1015.07 1015.34 1015.60 1015.84 1016.05
1013.44 1013.57 1013.72 1013.89 1014.05 1014.18 1014.28 1014.36 1014.44 1014.53 1014.63 1014.73 1014.81 1014.84 1014.78 1014.61 1014.32 1013.92 1013.45 1012.95 1012.50 1012.15 1011.93 1011.89 1011.99 1012.23 1012.55 1012.89 1013.21 1013.47 1013.65 1013.75 1013.80 1013.83 1013.87 1013.94 1014.06 1014.23 1014.43 1014.65 1014.87 1015.07 1015.25
1013.41 1013.50 1013.64 1013.80 1013.95 1014.08 1014.19 1014.27 1014.35 1014.45 1014.57 1014.70 1014.83 1014.91 1014.92 1014.80 1014.55 1014.16 1013.67 1013.12 1012.59 1012.14 1011.83 1011.68 1011.71 1011.90 1012.20 1012.54 1012.88 1013.17 1013.39 1013.52 1013.59 1013.61 1013.63 1013.66 1013.72 1013.82 1013.95 1014.10 1014.25 1014.38 1014.50
1013.34 1013.38 1013.50 1013.64 1013.79 1013.92 1014.02 1014.10 1014.17 1014.27 1014.39 1014.55 1014.71 1014.85 1014.93 1014.88 1014.69 1014.35 1013.87 1013.32 1012.76 1012.25 1011.87 1011.65 1011.63 1011.77 1012.04 1012.39 1012.75 1013.07 1013.32 1013.49 1013.57 1013.59 1013.59 1013.58 1013.58 1013.60 1013.64 1013.70 1013.75 1013.79 1013.82
1013.21 1013.22 1013.32 1013.45 1013.59 1013.71 1013.80 1013.86 1013.91 1013.99 1014.10 1014.26 1014.45 1014.63 1014.77 1014.79 1014.68 1014.41 1013.99 1013.47 1012.92 1012.40 1011.99 1011.74 1011.67 1011.78 1012.04 1012.38 1012.76 1013.11 1013.40 1013.59 1013.70 1013.73 1013.70 1013.65 1013.59 1013.54 1013.49 1013.44 1013.39 1013.33 1013.26
1013.05 1013.04 1013.12 1013.24 1013.36 1013.46 1013.53 1013.56 1013.58 1013.62 1013.71 1013.85 1014.04 1014.25 1014.42 1014.52 1014.48 1014.29 1013.96 1013.50 1013.00 1012.51 1012.11 1011.85 1011.77 1011.86 1012.11 1012.46 1012.85 1013.23 1013.55 1013.78 1013.91 1013.95 1013.92 1013.84 1013.73 1013.60 1013.47 1013.33 1013.18 1013.02 1012.86
1012.89 1012.87 1012.93 1013.03 1013.14 1013.22 1013.25 1013.24 1013.21 1013.20 1013.24 1013.34 1013.51 1013.72 1013.91 1014.05 1014.09 1013.98 1013.73 1013.37 1012.94 1012.51 1012.15 1011.92 1011.85 1011.96 1012.21 1012.57 1012.98 1013.38 1013.73 1013.99 1014.15 1014.20 1014.17 1014.08 1013.93 1013.76 1013.56 1013.35 1013.12 1012.88 1012.64
1012.77 1012.75 1012.80 1012.89 1012.97 1013.01 1013.00 1012.95 1012.86 1012.79 1012.76 1012.80 1012.92 1013.10 1013.29 1013.44 1013.52 1013.48 1013.32 1013.05 1012.71 1012.36 1012.07 1011.89 1011.87 1012.00 1012.27 1012.65 1013.09 1013.51 1013.89 1014.18 1014.37 1014.45 1014.43 1014.33 1014.17 1013.97 1013.74 1013.49 1013.21 1012.92 1012.63
1012.72 1012.71 1012.75 1012.83 1012.88 1012.89 1012.84 1012.73 1012.58 1012.43 1012.33 1012.30 1012.34 1012.46 1012.61 1012.75 1012.85 1012.85 1012.75 1012.56 1012.32 1012.07 1011.86 1011.76 1011.79 1011.97 1012.27 1012.68 1013.14 1013.59 1014.00 1014.32 1014.53 1014.64 1014.65 1014.57 1014.43 1014.23 1014.00 1013.73 1013.45 1013.14 1012.84
1012.77 1012.77 1012.82 1012.88 1012.91 1012.88 1012.79 1012.63 1012.42 1012.20 1012.01 1011.89 1011.85 1011.88 1011.96 1012.06 1012.13 1012.15 1012.09 1011.97 1011.81 1011.65 1011.53 1011.51 1011.61 1011.84 1012.19 1012.63 1013.12 1013.60 1014.03 1014.38 1014.63 1014.77 1014.82 1014.78 1014.67 1014.51 1014.31 1014.07 1013.81 1013.52 1013.24
1012.94 1012.95 1013.00 1013.04 1013.05 1013.00 1012.88 1012.67 1012.41 1012.13 1011.87 1011.66 1011.52 1011.45 1011.44 1011.46 1011.48 1011.48 1011.43 1011.34 1011.24 1011.15 1011.12 1011.17 1011.34 1011.63 1012.03 1012.50 1013.01 1013.51 1013.97 1014.35 1014.64 1014.82 1014.92 1014.93 1014.89 1014.78 1014.64 1014.46 1014.25 1014.02 1013.77
1013.20 1013.22 1013.26 1013.30 1013.30 1013.24 1013.09 1012.86 1012.57 1012.24 1011.91 1011.62 1011.38 1011.20 1011.09 1011.01 1010.96 1010.90 1010.84 1010.76 1010.69 1010.66 1010.69 1010.80 1011.02 1011.36 1011.78 1012.28 1012.81 1013.33 1013.80 1014.21 1014.54 1014.77 1014.93 1015.01 1015.04 1015.01 1014.95 1014.85 1014.71 1014.55 1014.37
1013.50 1013.54 1013.58 1013.62 1013.62 1013.56 1013.41 1013.18 1012.87 1012.52 1012.14 1011.77 1011.45 1011.17 1010.95 1010.77 1010.63 1010.50 1010.39 1010.30 1010.23 1010.22 1010.28 1010.42 1010.68 1011.03 1011.47 1011.97 1012.50 1013.03 1013.52 1013.95 1014.31 1014.60 1014.82 1014.98 1015.09 1015.16 1015.19 1015.18 1015.13 1015.05 1014.94
1013.81 1013.85 1013.91 1013.96 1013.97 1013.92 1013.79 1013.58 1013.28 1012.91 1012.51 1012.09 1011.70 1011.33 1011.01 1010.74 1010.50 1010.29 1010.12 1009.98 1009.90 1009.87 1009.93 1010.08 1010.33 1010.67 1011.09 1011.58 1012.09 1012.60 1013.09 1013.53 1013.93 1014.27 1014.56 1014.81 1015.01 1015.18 1015.31 1015.41 1015.45 1015.46 1015.42
1014.07 1014.13 1014.20 1014.26 1014.30 1014.28 1014.19 1014.00 1013.72 1013.37 1012.96 1012.52 1012.07 1011.64 1011.24 1010.88 1010.56 1010.27 1010.03 1009.84 1009.70 1009.64 1009.66 1009.77 1009.98 1010.28 1010.65 1011.08 1011.55 1012.03 1012.51 1012.96 1013.39 1013.78 1014.15 1014.48 1014.79 1015.06 1015.30 1015.49 1015.64 1015.73 1015.77
1014.27 1014.33 1014.42 1014.51 1014.58 1014.60 1014.54 1014.39 1014.15 1013.82 1013.41 1012.97 1012.50 1012.03 1011.57 1011.14 1010.75 1010.40 1010.09 1009.84 1009.64 1009.51 1009.46 1009.50 1009.63 1009.85 1010.14 1010.49 1010.89 1011.33 1011.78 1012.24 1012.69 1013.14 1013.58 1014.01 1014.42 1014.80 1015.14 1015.43 1015.67 1015.85 1015.96
1014.38 1014.46 1014.57 1014.70 1014.81 1014.86 1014.84 1014.73 1014.52 1014.21 1013.82 1013.38 1012.90 1012.41 1011.92 1011.45 1011.01 1010.61 1010.25 1009.93 1009.66 1009.45 1009.32 1009.26 1009.28 1009.38 1009.56 1009.81 1010.13 1010.50 1010.92 1011.38 1011.86 1012.37 1012.89 1013.41 1013.92 1014.40 1014.85 1015.24 1015.57 1015.83 1016.01
1014.44 1014.54 1014.68 1014.84 1014.98 1015.06 1015.07 1014.98 1014.79 1014.50 1014.13 1013.69 1013.21 1012.72 1012.22 1011.74 1011.28 1010.84 1010.43 1010.06 1009.72 1009.42 1009.18 1009.01 1008.90 1008.87 1008.92 1009.06 1009.29 1009.59 1009.98 1010.43 1010.94 1011.50 1012.10 1012.71 1013.32 1013.90 1014.45 1014.93 1015.35 1015.69 1015.95
1014.48 1014.61 1014.79 1014.97 1015.13 1015.23 1015.25 1015.16 1014.97 1014.69 1014.31 1013.88 1013.41 1012.92 1012.42 1011.94 1011.47 1011.02 1010.58 1010.16 1009.76 1009.38 1009.03 1008.73 1008.49 1008.32 1008.25 1008.27 1008.40 1008.64 1008.99 1009.44 1009.99 1010.60 1011.27 1011.97 1012.67 1013.35 1013.98 1014.54 1015.04 1015.45 1015.78
1014.56 1014.72 1014.93 1015.13 1015.30 1015.40 1015.40 1015.30 1015.09 1014.78 1014.39 1013.95 1013.48 1012.99 1012.51 1012.04 1011.57 1011.12 1010.66 1010.21 1009.74 1009.28 1008.84 1008.42 1008.05 1007.75 1007.55 1007.46 1007.50 1007.69 1008.01 1008.47 1009.04 1009.71 1010.45 1011.22 1012.00 1012.75 1013.45 1014.09 1014.64 1015.11 1015.50
Thickness
5765 5764 5763 5762 5762 5762 5761 5761 5761 5761 5761 5761 5761 5760 5761 5760 5760 5758 5754 5752 5751 5749 5748 5747 5745 5744 5742 5740 5739 5737 5736 5735 5733 5732 5730 5729 5727 5726 5724 5723 5722 5720 5718
5765 5764 5763 5763 5763 5763 5763 5762 5762 5762 5761 5762 5761 5761 5761 5761 5760 5758 5756 5753 5752 5751 5749 5748 5747 5745 5743 5742 5740 5738 5737 5735 5734 5732 5731 5729 5728 5726 5724 5723 5721 5720 5718
5766 5765 5764 5763 5764 5764 5764 5763 5763 5763 5761 5762 5761 5762 5762 5761 5761 5760 5758 5756 5753 5752 5751 5749 5748 5747 5745 5743 5741 5740 5738 5736 5735 5733 5731 5730 5728 5726 5724 5723 5721 5720 5718
5766 5765 5765 5765 5765 5765 5764 5763 5763 5761 5760 5760 5760 5762 5762 5761 5761 5761 5760 5758 5756 5754 5752 5750 5749 5748 5746 5745 5743 5741 5739 5738 5736 5734 5732 5731 5729 5727 5725 5723 5721 5720 5718
5767 5766 5765 5765 5766 5766 5765 5764 5762 5761 5759 5759 5760 5761 5762 5762 5761 5762 5761 5759 5758 5757 5755 5752 5750 5749 5747 5746 5744 5742 5740 5738 5736 5735 5733 5731 5729 5727 5725 5723 5722 5720 5718
5767 5766 5765 5765 5766 5765 5763 5763 5760 5761 5760 5759 5761 5761 5761 5762 5761 5761 5761 5760 5759 5758 5756 5754 5751 5749 5747 5746 5744 5742 5740 5739 5736 5735 5733 5731 5730 5728 5726 5724 5722 5720 5718
5768 5766 5766 5765 5764 5763 5762 5762 5760 5758 5757 5759 5756 5754 5757 5760 5760 5760 5760 5759 5759 5757 5756 5754 5752 5750 5748 5746 5744 5742 5740 5738 5737 5735 5733 5731 5729 5728 5726 5724 5722 5720 5719
5768 5767 5764 5763 5763 5762 5761 5760 5758 5755 5755 5758 5752 5747 5744 5748 5754 5759 5758 5757 5756 5755 5754 5753 5751 5750 5748 5746 5743 5741 5740 5738 5736 5734 5733 5731 5729 5727 5725 5724 5722 5720 5718
5768 5767 5765 5764 5763 5762 5759 5758 5757 5754 5751 5754 5755 5748 5739 5736 5742 5749 5753 5753 5751 5752 5751 5750 5749 5748 5747 5745 5743 5740 5739 5737 5735 5733 5731 5729 5728 5726 5724 5723 5720 5718 5716
5768 5767 5765 5763 5762 5761 5759 5758 5757 5755 5752 5748 5751 5751 5749 5746 5738 5736 5742 5747 5747 5747 5747 5747 5747 5745 5744 5742 5740 5739 5737 5735 5733 5731 5730 5728 5726 5724 5722 5721 5719 5717 5714
5768 5767 5765 5763 5761 5759 5758 5757 5756 5754 5752 5749 5747 5747 5746 5745 5743 5735 5731 5736 5740 5743 5744 5744 5743 5742 5740 5739 5737 5735 5733 5732 5730 5728 5726 5725 5723 5721 5719 5717 5716 5714 5712
5766 5766 5765 5762 5760 5758 5757 5756 5755 5753 5750 5749 5747 5745 5742 5739 5738 5736 5731 5730 5731 5735 5739 5739 5739 5737 5736 5735 5733 5731 5729 5727 5725 5723 5721 5720 5718 5717 5716 5714 5712 5710 5709
5764 5763 5763 5760 5758 5757 5755 5754 5752 5750 5749 5747 5744 5743 5742 5741 5740 5737 5732 5728 5727 5729 5731 5733 5733 5732 5731 5730 5728 5726 5724 5723 5721 5718 5716 5714 5713 5711 5710 5709 5707 5706 5704
5763 5763 5761 5759 5757 5755 5754 5752 5750 5748 5747 5745 5744 5742 5740 5739 5739 5736 5732 5726 5721 5721 5722 5724 5728 5728 5726 5724 5722 5720 5718 5716 5714 5713 5711 5709 5707 5705 5703 5702 5701 5699 5697
5763 5761 5759 5756 5754 5753 5751 5749 5746 5745 5744 5743 5741 5739 5737 5736 5735 5734 5732 5728 5720 5713 5713 5718 5719 5722 5720 5718 5716 5713 5712 5709 5707 5706 5704 5702 5700 5698 5697 5695 5693 5692 5690
5760 5758 5756 5754 5752 5750 5748 5746 5744 5743 5741 5739 5737 5735 5733 5732 5731 5730 5728 5726 5723 5716 5710 5713 5714 5715 5715 5712 5710 5707 5705 5702 5700 5698 5696 5695 5693 5691 5689 5687 5685 5683 5681
5757 5754 5752 5749 5748 5746 5744 5742 5741 5739 5736 5734 5733 5731 5729 5728 5725 5725 5724 5722 5719 5715 5708 5708 5710 5709 5707 5705 5702 5700 5698 5696 5692 5691 5689 5687 5685 5683 5681 5678 5676 5674 5672
5755 5752 5749 5745 5743 5741 5740 5738 5736 5734 5731 5729 5727 5726 5723 5723 5720 5719 5718 5715 5713 5712 5707 5702 5702 5701 5700 5698 5696 5693 5691 5688 5686 5683 5681 5679 5677 5674 5672 5670 5667 5665 5663
5752 5749 5745 5742 5739 5737 5734 5733 5731 5728 5726 5724 5722 5720 5718 5716 5714 5713 5711 5710 5709 5707 5704 5700 5697 5695 5694 5692 5689 5686 5684 5681 5679 5675 5672 5670 5667 5665 5663 5660 5658 5655 5653
5748 5745 5742 5739 5736 5733 5729 5727 5725 5723 5721 5719 5717 5715 5712 5710 5708 5706 5705 5704 5702 5700 5698 5695 5692 5689 5686 5684 5681 5677 5674 5673 5671 5668 5664 5661 5658 5655 5653 5651 5648 5645 5643
5745 5742 5738 5734 5732 5728 5724 5721 5719 5718 5715 5712 5710 5708 5706 5703 5702 5700 5698 5696 5695 5692 5690 5687 5684 5681 5678 5675 5672 5671 5667 5665 5662 5659 5655 5652 5649 5646 5643 5640 5637 5634 5632
5741 5737 5734 5729 5725 5722 5717 5715 5713 5711 5709 5707 5704 5701 5700 5697 5695 5693 5691 5690 5688 5686 5683 5680 5677 5673 5671 5669 5668 5666 5661 5657 5652 5652 5649 5645 5643 5638 5635 5632 5628 5625 5622
5735 5731 5727 5723 5719 5714 5711 5709 5707 5706 5703 5700 5698 5695 5694 5692 5688 5687 5685 5683 5681 5679 5677 5674 5671 5668 5665 5664 5661 5658 5655 5652 5648 5647 5643 5638 5636 5632 5628 5624 5620 5617 5613
5730 5726 5722 5717 5713 5708 5705 5703 5700 5700 5697 5694 5691 5688 5686 5683 5681 5679 5678 5676 5674 5672 5671 5669 5666 5663 5661 5658 5656 5653 5650 5646 5643 5640 5637 5631 5628 5624 5622 5617 5613 5609 5605
5725 5721 5717 5712 5707 5702 5698 5696 5694 5693 5690 5687 5684 5681 5679 5676 5674 5673 5671 5669 5666 5664 5663 5662 5660 5657 5654 5651 5648 5645 5641 5637 5632 5630 5629 5624 5621 5617 5613 5608 5604 5601 5597
5721 5716 5710 5706 5701 5696 5692 5690 5687 5687 5684 5681 5678 5675 5672 5669 5668 5665 5664 5662 5658 5656 5655 5653 5651 5649 5646 5643 5641 5638 5634 5629 5625 5621 5619 5616 5612 5608 5603 5601 5597 5592 5588